DW3092 Weather Reports


Display with metric or nautical units.
time (UTC)temp
F
wind
direction
speed
MPH
gust
MPH
rain 1hr
in
rain 24hr
in
rain mn
in
humidity
%
barometer
mb
20260505013808 59 127 3.0 5.0 0.00 0.00 0.00 50 1009.9
20260505013306 59 133 3.0 4.0 0.00 0.00 0.00 50 1010.0
20260505012804 59 71 2.0 5.0 0.00 0.00 0.00 49 1009.8
20260505012301 60 128 3.0 8.0 0.00 0.00 0.00 48 1009.9
20260505011757 60 134 4.0 5.0 0.00 0.00 0.00 48 1009.9
20260505011254 60 156 5.0 6.0 0.00 0.00 0.00 47 1009.8
20260505010750 60 122 3.0 7.0 0.00 0.00 0.00 47 1009.7
20260505010246 60 125 5.0 7.0 0.00 0.00 0.00 46 1009.5
20260505005743 61 136 4.0 6.0 0.00 0.00 0.00 46 1009.6
20260505005240 61 142 7.0 8.0 0.00 0.00 0.00 46 1009.6
20260505004737 61 137 5.0 8.0 0.00 0.00 0.00 45 1009.3
20260505004233 61 148 5.0 7.0 0.00 0.00 0.00 45 1009.1
20260505003730 61 135 5.0 7.0 0.00 0.00 0.00 45 1009.3
20260505003228 62 98 3.0 6.0 0.00 0.00 0.00 45 1009.1
20260505002724 62 146 6.0 7.0 0.00 0.00 0.00 44 1009.0
20260505002222 62 128 5.0 9.0 0.00 0.00 0.00 44 1008.8
20260505001719 62 139 5.0 6.0 0.00 0.00 0.00 44 1008.7
20260505001217 62 127 4.0 10.0 0.00 0.00 0.00 44 1008.6
20260505000714 62 130 3.0 5.0 0.00 0.00 0.00 44 1008.6
20260505000211 63 131 5.0 9.0 0.00 0.00 0.00 43 1008.5
20260504235708 63 147 4.0 6.0 0.00 0.00 0.00 43 1008.4
20260504235204 63 126 4.0 5.0 0.00 0.00 0.00 42 1008.1
20260504234701 64 132 3.0 9.0 0.00 0.00 0.00 41 1008.2
20260504234158 64 126 4.0 10.0 0.00 0.00 0.00 41 1007.9
20260504233654 64 168 5.0 8.0 0.00 0.00 0.00 41 1008.2
20260504233150 64 126 3.0 10.0 0.00 0.00 0.00 40 1007.9
20260504232648 65 158 6.0 6.0 0.00 0.00 0.00 40 1007.9
20260504232145 65 121 5.0 10.0 0.00 0.00 0.00 39 1007.8
20260504231642 65 115 5.0 9.0 0.00 0.00 0.00 39 1007.6
20260504231138 66 119 4.0 11.0 0.00 0.00 0.00 38 1007.5
20260504230634 66 130 4.0 8.0 0.00 0.00 0.00 38 1007.6
20260504230133 67 191 3.0 9.0 0.00 0.00 0.00 37 1007.6
20260504225631 67 146 5.0 8.0 0.00 0.00 0.00 36 1007.2
20260504225127 67 157 5.0 5.0 0.00 0.00 0.00 36 1007.3
20260504224624 67 137 3.0 7.0 0.00 0.00 0.00 36 1007.2
20260504224120 68 116 4.0 7.0 0.00 0.00 0.00 35 1007.1
20260504223617 68 131 5.0 6.0 0.00 0.00 0.00 34 1007.0
20260504223113 69 136 5.0 10.0 0.00 0.00 0.00 32 1007.1
20260504222610 70 111 2.0 8.0 0.00 0.00 0.00 30 1006.8
20260504222108 71 116 6.0 6.0 0.00 0.00 0.00 29 1006.9
20260504221605 71 304 3.0 5.0 0.00 0.00 0.00 28 1006.9
20260504221101 72 209 0.0 8.0 0.00 0.00 0.00 28 1006.9
20260504220558 71 139 3.0 6.0 0.00 0.00 0.00 28 1006.8
20260504220055 71 159 3.0 4.0 0.00 0.00 0.00 29 1006.8
20260504215551 71 142 4.0 6.0 0.00 0.00 0.00 29 1007.0
20260504215049 72 157 5.0 6.0 0.00 0.00 0.00 28 1007.1
20260504214544 73 167 6.0 6.0 0.00 0.00 0.00 27 1006.8
20260504214041 73 138 6.0 6.0 0.00 0.00 0.00 27 1006.9
20260504213538 72 161 3.0 4.0 0.00 0.00 0.00 27 1006.7
20260504213035 74 261 4.0 5.0 0.00 0.00 0.00 26 1006.9
20260504212531 74 219 2.0 6.0 0.00 0.00 0.00 27 1006.9
20260504212028 73 144 5.0 6.0 0.00 0.00 0.00 26 1006.9
20260504211525 72 159 4.0 8.0 0.00 0.00 0.00 27 1006.8
20260504211022 73 271 2.0 6.0 0.00 0.00 0.00 26 1006.8
20260504210519 74 159 2.0 4.0 0.00 0.00 0.00 26 1006.9
20260504210016 73 115 3.0 5.0 0.00 0.00 0.00 26 1007.1
20260504205514 73 162 1.0 6.0 0.00 0.00 0.00 26 1006.9
20260504205012 73 151 8.0 9.0 0.00 0.00 0.00 26 1006.8
20260504204509 72 139 3.0 5.0 0.00 0.00 0.00 27 1007.0
20260504204008 72 140 6.0 9.0 0.00 0.00 0.00 27 1007.0
20260504203506 73 135 5.0 9.0 0.00 0.00 0.00 27 1006.8
20260504203002 74 215 4.0 8.0 0.00 0.00 0.00 25 1006.7
20260504202458 74 182 2.0 12.0 0.00 0.00 0.00 26 1006.6
20260504201955 74 158 4.0 5.0 0.00 0.00 0.00 26 1006.9
20260504201452 73 205 2.0 6.0 0.00 0.00 0.00 26 1006.9
20260504200950 73 292 7.0 12.0 0.00 0.00 0.00 26 1006.9
20260504200446 73 254 3.0 6.0 0.00 0.00 0.00 25 1006.9
20260504195943 72 239 3.0 5.0 0.00 0.00 0.00 26 1006.9
20260504195439 72 112 2.0 11.0 0.00 0.00 0.00 27 1007.1
20260504194936 72 154 4.0 8.0 0.00 0.00 0.00 26 1007.2
20260504194432 71 93 4.0 9.0 0.00 0.00 0.00 26 1007.1
20260504193928 71 133 4.0 13.0 0.00 0.00 0.00 26 1007.0
20260504193425 72 126 0.0 9.0 0.00 0.00 0.00 26 1007.0
20260504192924 71 155 2.0 8.0 0.00 0.00 0.00 26 1007.1
20260504192421 71 146 5.0 11.0 0.00 0.00 0.00 27 1007.0
20260504191920 71 158 7.0 9.0 0.00 0.00 0.00 25 1007.2
20260504191417 72 268 2.0 8.0 0.00 0.00 0.00 25 1007.2
20260504190912 71 252 1.0 8.0 0.00 0.00 0.00 27 1007.2
20260504190408 71 147 4.0 6.0 0.00 0.00 0.00 27 1007.2
20260504185905 70 162 2.0 9.0 0.00 0.00 0.00 27 1007.4
20260504185402 70 116 4.0 13.0 0.00 0.00 0.00 26 1007.3
20260504184858 71 152 6.0 11.0 0.00 0.00 0.00 25 1007.5
20260504184354 71 108 2.0 6.0 0.00 0.00 0.00 27 1007.6
20260504183850 70 227 3.0 12.0 0.00 0.00 0.00 26 1007.5
20260504183348 70 145 5.0 7.0 0.00 0.00 0.00 26 1007.5
20260504182845 70 157 5.0 10.0 0.00 0.00 0.00 25 1007.6
20260504182343 69 155 7.0 8.0 0.00 0.00 0.00 27 1007.8
20260504181839 69 141 9.0 10.0 0.00 0.00 0.00 26 1007.6
20260504181337 70 191 2.0 8.0 0.00 0.00 0.00 26 1007.6
20260504180835 69 256 5.0 9.0 0.00 0.00 0.00 27 1007.7
20260504180333 69 164 6.0 13.0 0.00 0.00 0.00 26 1007.8
20260504175832 69 157 8.0 9.0 0.00 0.00 0.00 27 1007.7
20260504175328 70 127 10.0 11.0 0.00 0.00 0.00 26 1007.5
20260504174826 69 202 3.0 9.0 0.00 0.00 0.00 28 1007.8
20260504174323 69 120 5.0 11.0 0.00 0.00 0.00 27 1007.6
20260504173820 69 163 3.0 10.0 0.00 0.00 0.00 27 1007.9
20260504173317 69 238 6.0 9.0 0.00 0.00 0.00 28 1008.3
20260504172814 69 293 3.0 6.0 0.00 0.00 0.00 27 1008.0
20260504172310 69 150 7.0 8.0 0.00 0.00 0.00 28 1008.3
20260504171806 68 192 2.0 6.0 0.00 0.00 0.00 28 1008.2
20260504171304 68 129 4.0 6.0 0.00 0.00 0.00 29 1008.2
20260504170801 67 114 3.0 8.0 0.00 0.00 0.00 29 1008.3
20260504170258 67 137 7.0 15.0 0.00 0.00 0.00 28 1008.1
20260504160216 66 193 5.0 10.0 0.00 0.00 0.00 31 1008.9
20260504151144 65 168 2.0 9.0 0.00 0.00 0.00 30 1009.3
20260504150641 64 200 2.0 7.0 0.00 0.00 0.00 32 1009.4
20260504150138 64 269 6.0 11.0 0.00 0.00 0.00 32 1009.2
20260504141107 62 240 6.0 9.0 0.00 0.00 0.00 35 1009.6
20260504140603 61 306 6.0 9.0 0.00 0.00 0.00 36 1009.8
20260504130527 57 144 2.0 4.0 0.00 0.00 0.00 43 1010.6
20260504110415 49 132 2.0 4.0 0.00 0.00 0.00 48 1010.7
20260504100332 47 140 3.0 6.0 0.00 0.00 0.00 50 1010.8
20260504081725 47 126 3.0 4.0 0.00 0.00 0.00 49 1010.9
20260504081221 47 123 3.0 3.0 0.00 0.00 0.00 49 1010.7
20260504080718 47 118 2.0 4.0 0.00 0.00 0.00 49 1010.8
20260504080215 47 114 3.0 3.0 0.00 0.00 0.00 48 1010.7
20260504070142 47 123 3.0 4.0 0.00 0.00 0.00 47 1010.4
20260504050531 46 128 2.0 3.0 0.00 0.00 0.00 46 1010.5
20260504045525 45 127 3.0 3.0 0.00 0.00 0.00 49 1010.2
20260504045020 45 94 2.0 4.0 0.00 0.00 0.00 49 1010.7
20260504044518 45 132 3.0 4.0 0.00 0.00 0.00 50 1010.5
20260504044014 44 132 2.0 4.0 0.00 0.00 0.00 49 1010.7
20260504043511 43 133 3.0 4.0 0.00 0.00 0.00 50 1010.7
20260504043009 43 138 2.0 3.0 0.00 0.00 0.00 52 1010.6
20260504042505 43 130 2.0 4.0 0.00 0.00 0.00 51 1010.6
20260504042003 43 122 2.0 3.0 0.00 0.00 0.00 53 1010.5
20260504041459 43 109 2.0 4.0 0.00 0.00 0.00 51 1010.4
20260504040954 43 138 3.0 3.0 0.00 0.00 0.00 51 1010.4
20260504040452 42 106 0.0 2.0 0.00 0.00 0.00 53 1010.2
20260504035948 42 74 2.0 2.0 0.00 0.00 0.00 54 1010.2
20260504035446 41 109 1.0 2.0 0.00 0.00 0.00 55 1009.9
20260504034942 41 84 2.0 2.0 0.00 0.00 0.00 56 1010.1
20260504034440 40 110 2.0 2.0 0.00 0.00 0.00 60 1010.2
20260504033937 40 105 2.0 2.0 0.00 0.00 0.00 59 1010.1
20260504033434 40 110 1.0 2.0 0.00 0.00 0.00 60 1010.0
20260504032931 39 125 1.0 2.0 0.00 0.00 0.00 61 1010.1
20260504032428 39 137 2.0 2.0 0.00 0.00 0.00 61 1010.2
20260504031925 39 124 1.0 3.0 0.00 0.00 0.00 62 1009.8
20260504031422 39 84 1.0 2.0 0.00 0.00 0.00 63 1010.1
20260504030919 39 132 2.0 2.0 0.00 0.00 0.00 61 1010.0
20260504030416 39 115 2.0 2.0 0.00 0.00 0.00 62 1010.0
20260504025912 40 144 2.0 2.0 0.00 0.00 0.00 60 1010.0
20260504025409 40 132 1.0 2.0 0.00 0.00 0.00 61 1009.9
20260504024906 40 122 1.0 2.0 0.00 0.00 0.00 58 1009.9
20260504024402 40 126 2.0 2.0 0.00 0.00 0.00 58 1009.9
20260504023859 41 116 2.0 2.0 0.00 0.00 0.00 58 1010.0
20260504023356 41 130 2.0 3.0 0.00 0.00 0.00 56 1009.7
20260504022851 41 135 3.0 3.0 0.00 0.00 0.00 55 1009.7
20260504022349 41 123 2.0 3.0 0.00 0.00 0.00 56 1009.9
20260504021845 41 120 2.0 2.0 0.00 0.00 0.00 57 1009.9
20260504021342 42 128 2.0 3.0 0.00 0.00 0.00 54 1010.0
20260504020839 42 134 3.0 3.0 0.00 0.00 0.00 55 1009.8
20260504020336 42 129 2.0 3.0 0.00 0.00 0.00 55 1009.8
20260504015832 42 120 2.0 2.0 0.00 0.00 0.00 54 1009.7
20260504015328 42 127 2.0 2.0 0.00 0.00 0.00 54 1009.6
20260504014825 42 117 2.0 2.0 0.00 0.00 0.00 54 1009.6
20260504014320 42 126 2.0 3.0 0.00 0.00 0.00 55 1009.8